Year,Month,Day,Hour,Minute,Value (Times are PST for temperature in C)
2007,12,06,00,00,2.80
2007,12,06,00,01,2.80
2007,12,06,00,02,2.80
2007,12,06,00,03,2.80
2007,12,06,00,04,2.80
2007,12,06,00,05,2.80
2007,12,06,00,06,2.80
2007,12,06,00,07,2.80
2007,12,06,00,08,2.80
2007,12,06,00,09,2.80
2007,12,06,00,10,2.80
2007,12,06,00,11,2.80
2007,12,06,00,12,2.90
2007,12,06,00,13,2.90
2007,12,06,00,14,2.90
2007,12,06,00,15,2.90
2007,12,06,00,16,2.90
2007,12,06,00,17,2.90
2007,12,06,00,18,2.90
2007,12,06,00,19,2.90
2007,12,06,00,20,3.00
2007,12,06,00,21,3.00
2007,12,06,00,22,3.00
2007,12,06,00,23,3.00
2007,12,06,00,24,3.00
2007,12,06,00,25,3.10
2007,12,06,00,26,3.10
2007,12,06,00,27,3.10
2007,12,06,00,28,3.10
2007,12,06,00,29,3.10
2007,12,06,00,30,3.10
2007,12,06,00,31,3.10
2007,12,06,00,32,3.10
2007,12,06,00,33,3.20
2007,12,06,00,34,3.20
2007,12,06,00,35,3.20
2007,12,06,00,36,3.20
2007,12,06,00,37,3.20
2007,12,06,00,38,3.20
2007,12,06,00,39,3.20
2007,12,06,00,40,3.20
2007,12,06,00,41,3.10
2007,12,06,00,42,3.10
2007,12,06,00,43,3.10
2007,12,06,00,44,3.10
2007,12,06,00,45,3.10
2007,12,06,00,46,3.10
2007,12,06,00,47,3.10
2007,12,06,00,48,3.10
2007,12,06,00,49,3.10
2007,12,06,00,50,3.00
2007,12,06,00,51,3.00
2007,12,06,00,52,3.00
2007,12,06,00,53,3.10
2007,12,06,00,54,3.10
2007,12,06,00,55,3.10
2007,12,06,00,56,3.10
2007,12,06,00,57,3.10
2007,12,06,00,58,3.10
2007,12,06,00,59,3.10
2007,12,06,01,00,3.10
2007,12,06,01,01,3.10
2007,12,06,01,02,3.10
2007,12,06,01,03,3.10
2007,12,06,01,04,3.00
2007,12,06,01,05,3.10
2007,12,06,01,06,3.10
2007,12,06,01,07,3.10
2007,12,06,01,08,3.10
2007,12,06,01,09,3.10
2007,12,06,01,10,3.10
2007,12,06,01,11,3.00
2007,12,06,01,12,3.00
2007,12,06,01,13,3.00
2007,12,06,01,14,3.00
2007,12,06,01,15,3.00
2007,12,06,01,16,3.00
2007,12,06,01,17,3.00
2007,12,06,01,18,3.00
2007,12,06,01,19,3.00
2007,12,06,01,20,3.00
2007,12,06,01,21,3.00
2007,12,06,01,22,3.00
2007,12,06,01,23,3.10
2007,12,06,01,24,3.10
2007,12,06,01,25,3.10
2007,12,06,01,26,3.10
2007,12,06,01,27,3.10
2007,12,06,01,28,3.10
2007,12,06,01,29,3.10
2007,12,06,01,30,3.10
2007,12,06,01,31,3.00
2007,12,06,01,32,3.10
2007,12,06,01,33,3.00
2007,12,06,01,34,3.00
2007,12,06,01,35,3.10
2007,12,06,01,36,3.10
2007,12,06,01,37,3.10
2007,12,06,01,38,3.10
2007,12,06,01,39,3.10
2007,12,06,01,40,3.10
2007,12,06,01,41,3.10
2007,12,06,01,42,3.10
2007,12,06,01,43,3.10
2007,12,06,01,44,3.10
2007,12,06,01,45,3.00
2007,12,06,01,46,3.00
2007,12,06,01,47,2.90
2007,12,06,01,48,2.90
2007,12,06,01,49,2.90
2007,12,06,01,50,2.80
2007,12,06,01,51,2.80
2007,12,06,01,52,2.80
2007,12,06,01,53,2.80
2007,12,06,01,54,2.70
2007,12,06,01,55,2.70
2007,12,06,01,56,2.70
2007,12,06,01,57,2.70
2007,12,06,01,58,2.70
2007,12,06,01,59,2.70
2007,12,06,02,00,2.70
2007,12,06,02,01,2.70
2007,12,06,02,02,2.70
2007,12,06,02,03,2.70
2007,12,06,02,04,2.70
2007,12,06,02,05,2.70
2007,12,06,02,06,2.70
2007,12,06,02,07,2.70
2007,12,06,02,08,2.70
2007,12,06,02,09,2.70
2007,12,06,02,10,2.70
2007,12,06,02,11,2.70
2007,12,06,02,12,2.70
2007,12,06,02,13,2.60
2007,12,06,02,14,2.60
2007,12,06,02,15,2.60
2007,12,06,02,16,2.60
2007,12,06,02,17,2.50
2007,12,06,02,18,2.50
2007,12,06,02,19,2.50
2007,12,06,02,20,2.50
2007,12,06,02,21,2.40
2007,12,06,02,22,2.40
2007,12,06,02,23,2.40
2007,12,06,02,24,2.40
2007,12,06,02,25,2.50
2007,12,06,02,26,2.50
2007,12,06,02,27,2.50
2007,12,06,02,28,2.60
2007,12,06,02,29,2.60
2007,12,06,02,30,2.60
2007,12,06,02,31,2.50
2007,12,06,02,32,2.50
2007,12,06,02,33,2.50
2007,12,06,02,34,2.50
2007,12,06,02,35,2.50
2007,12,06,02,36,2.50
2007,12,06,02,37,2.50
2007,12,06,02,38,2.40
2007,12,06,02,39,2.40
2007,12,06,02,40,2.40
2007,12,06,02,41,2.40
2007,12,06,02,42,2.40
2007,12,06,02,43,2.40
2007,12,06,02,44,2.50
2007,12,06,02,45,2.50
2007,12,06,02,46,2.50
2007,12,06,02,47,2.50
2007,12,06,02,48,2.60
2007,12,06,02,49,2.60
2007,12,06,02,50,2.60
2007,12,06,02,51,2.60
2007,12,06,02,52,2.60
2007,12,06,02,53,2.60
2007,12,06,02,54,2.50
2007,12,06,02,55,2.50
2007,12,06,02,56,2.50
2007,12,06,02,57,2.40
2007,12,06,02,58,2.40
2007,12,06,02,59,2.50
2007,12,06,03,00,2.50
2007,12,06,03,01,2.50
2007,12,06,03,02,2.50
2007,12,06,03,03,2.50
2007,12,06,03,04,2.50
2007,12,06,03,05,2.60
2007,12,06,03,06,2.60
2007,12,06,03,07,2.50
2007,12,06,03,08,2.50
2007,12,06,03,09,2.50
2007,12,06,03,10,2.50
2007,12,06,03,11,2.50
2007,12,06,03,12,2.50
2007,12,06,03,13,2.50
2007,12,06,03,14,2.50
2007,12,06,03,15,2.50
2007,12,06,03,16,2.50
2007,12,06,03,17,2.50
2007,12,06,03,18,2.60
2007,12,06,03,19,2.50
2007,12,06,03,20,2.60
2007,12,06,03,21,2.60
2007,12,06,03,22,2.60
2007,12,06,03,23,2.60
2007,12,06,03,24,2.60
2007,12,06,03,25,2.60
2007,12,06,03,26,2.60
2007,12,06,03,27,2.60
2007,12,06,03,28,2.60
2007,12,06,03,29,2.60
2007,12,06,03,30,2.60
2007,12,06,03,31,2.60
2007,12,06,03,32,2.60
2007,12,06,03,33,2.60
2007,12,06,03,34,2.60
2007,12,06,03,35,2.60
2007,12,06,03,36,2.70
2007,12,06,03,37,2.70
2007,12,06,03,38,2.70
2007,12,06,03,39,2.70
2007,12,06,03,40,2.70
2007,12,06,03,41,2.70
2007,12,06,03,42,2.70
2007,12,06,03,43,2.80
2007,12,06,03,44,2.80
2007,12,06,03,45,2.80
2007,12,06,03,46,2.80
2007,12,06,03,47,2.80
2007,12,06,03,48,2.80
2007,12,06,03,49,2.80
2007,12,06,03,50,2.80
2007,12,06,03,51,2.80
2007,12,06,03,52,2.80
2007,12,06,03,53,2.90
2007,12,06,03,54,2.90
2007,12,06,03,55,2.90
2007,12,06,03,56,2.90
2007,12,06,03,57,2.90
2007,12,06,03,58,2.90
2007,12,06,03,59,2.90
2007,12,06,04,00,2.90
2007,12,06,04,01,2.90
2007,12,06,04,02,2.90
2007,12,06,04,03,2.90
2007,12,06,04,04,2.90
2007,12,06,04,05,3.00
2007,12,06,04,06,3.00
2007,12,06,04,07,3.00
2007,12,06,04,08,3.00
2007,12,06,04,09,3.00
2007,12,06,04,10,3.00
2007,12,06,04,11,3.00
2007,12,06,04,12,3.00
2007,12,06,04,13,3.00
2007,12,06,04,14,3.00
2007,12,06,04,15,3.00
2007,12,06,04,16,3.00
2007,12,06,04,17,3.00
2007,12,06,04,18,3.00
2007,12,06,04,19,3.00
2007,12,06,04,20,3.00
2007,12,06,04,21,3.00
2007,12,06,04,22,3.00
2007,12,06,04,23,3.00
2007,12,06,04,24,3.00
2007,12,06,04,25,3.00
2007,12,06,04,26,3.00
2007,12,06,04,27,3.10
2007,12,06,04,28,3.10
2007,12,06,04,29,3.10
2007,12,06,04,30,3.10
2007,12,06,04,31,3.10
2007,12,06,04,32,3.10
2007,12,06,04,33,3.20
2007,12,06,04,34,3.20
2007,12,06,04,35,3.20
2007,12,06,04,36,3.20
2007,12,06,04,37,3.20
2007,12,06,04,38,3.20
2007,12,06,04,39,3.20
2007,12,06,04,40,3.20
2007,12,06,04,41,3.20
2007,12,06,04,42,3.20
2007,12,06,04,43,3.20
2007,12,06,04,44,3.20
2007,12,06,04,45,3.20
2007,12,06,04,46,3.30
2007,12,06,04,47,3.30
2007,12,06,04,48,3.30
2007,12,06,04,49,3.30
2007,12,06,04,50,3.30
2007,12,06,04,51,3.30
2007,12,06,04,52,3.30
2007,12,06,04,53,3.30
2007,12,06,04,54,3.30
2007,12,06,04,55,3.30
2007,12,06,04,56,3.30
2007,12,06,04,57,3.30
2007,12,06,04,58,3.30
2007,12,06,04,59,3.30
2007,12,06,05,00,3.30
2007,12,06,05,01,3.30
2007,12,06,05,02,3.30
2007,12,06,05,03,3.30
2007,12,06,05,04,3.30
2007,12,06,05,05,3.30
2007,12,06,05,06,3.30
2007,12,06,05,07,3.30
2007,12,06,05,08,3.40
2007,12,06,05,09,3.40
2007,12,06,05,10,3.40
2007,12,06,05,11,3.40
2007,12,06,05,12,3.40
2007,12,06,05,13,3.40
2007,12,06,05,14,3.40
2007,12,06,05,15,3.40
2007,12,06,05,16,3.40
2007,12,06,05,17,3.40
2007,12,06,05,18,3.40
2007,12,06,05,19,3.40
2007,12,06,05,20,3.40
2007,12,06,05,21,3.40
2007,12,06,05,22,3.40
2007,12,06,05,23,3.40
2007,12,06,05,24,3.40
2007,12,06,05,25,3.40
2007,12,06,05,26,3.40
2007,12,06,05,27,3.50
2007,12,06,05,28,3.50
2007,12,06,05,29,3.50
2007,12,06,05,30,3.50
2007,12,06,05,31,3.50
2007,12,06,05,32,3.50
2007,12,06,05,33,3.60
2007,12,06,05,34,3.60
2007,12,06,05,35,3.60
2007,12,06,05,36,3.60
2007,12,06,05,37,3.60
2007,12,06,05,38,3.60
2007,12,06,05,39,3.60
2007,12,06,05,40,3.60
2007,12,06,05,41,3.60
2007,12,06,05,42,3.60
2007,12,06,05,43,3.60
2007,12,06,05,44,3.60
2007,12,06,05,45,3.60
2007,12,06,05,46,3.60
2007,12,06,05,47,3.60
2007,12,06,05,48,3.60
2007,12,06,05,49,3.60
2007,12,06,05,50,3.60
2007,12,06,05,51,3.60
2007,12,06,05,52,3.60
2007,12,06,05,53,3.60
2007,12,06,05,54,3.60
2007,12,06,05,55,3.70
2007,12,06,05,56,3.70
2007,12,06,05,57,3.70
2007,12,06,05,58,3.70
2007,12,06,05,59,3.70
2007,12,06,06,00,3.70
2007,12,06,06,01,3.70
2007,12,06,06,02,3.70
2007,12,06,06,03,3.70
2007,12,06,06,04,3.70
2007,12,06,06,05,3.70
2007,12,06,06,06,3.70
2007,12,06,06,07,3.70
2007,12,06,06,08,3.60
2007,12,06,06,09,3.60
2007,12,06,06,10,3.60
2007,12,06,06,11,3.60
2007,12,06,06,12,3.60
2007,12,06,06,13,3.60
2007,12,06,06,14,3.60
2007,12,06,06,15,3.60
2007,12,06,06,16,3.60
2007,12,06,06,17,3.60
2007,12,06,06,18,3.60
2007,12,06,06,19,3.60
2007,12,06,06,20,3.60
2007,12,06,06,21,3.70
2007,12,06,06,22,3.70
2007,12,06,06,23,3.70
2007,12,06,06,24,3.60
2007,12,06,06,25,3.60
2007,12,06,06,26,3.60
2007,12,06,06,27,3.60
2007,12,06,06,28,3.60
2007,12,06,06,29,3.60
2007,12,06,06,30,3.60
2007,12,06,06,31,3.60
2007,12,06,06,32,3.60
2007,12,06,06,33,3.60
2007,12,06,06,34,3.60
2007,12,06,06,35,3.60
2007,12,06,06,36,3.60
2007,12,06,06,37,3.60
2007,12,06,06,38,3.60
2007,12,06,06,39,3.60
2007,12,06,06,40,3.60
2007,12,06,06,41,3.60
2007,12,06,06,42,3.60
2007,12,06,06,43,3.60
2007,12,06,06,44,3.60
2007,12,06,06,45,3.60
2007,12,06,06,46,3.60
2007,12,06,06,47,3.60
2007,12,06,06,48,3.60
2007,12,06,06,49,3.60
2007,12,06,06,50,3.60
2007,12,06,06,51,3.70
2007,12,06,06,52,3.70
2007,12,06,06,53,3.70
2007,12,06,06,54,3.70
2007,12,06,06,55,3.70
2007,12,06,06,56,3.70
2007,12,06,06,57,3.70
2007,12,06,06,58,3.70
2007,12,06,06,59,3.60
2007,12,06,07,00,3.60
2007,12,06,07,01,3.60
2007,12,06,07,02,3.60
2007,12,06,07,03,3.60
2007,12,06,07,04,3.60
2007,12,06,07,05,3.60
2007,12,06,07,06,3.60
2007,12,06,07,07,3.60
2007,12,06,07,08,3.60
2007,12,06,07,09,3.50
2007,12,06,07,10,3.50
2007,12,06,07,11,3.50
2007,12,06,07,12,3.50
2007,12,06,07,13,3.50
2007,12,06,07,14,3.50
2007,12,06,07,15,3.50
2007,12,06,07,16,3.50
2007,12,06,07,17,3.50
2007,12,06,07,18,3.50
2007,12,06,07,19,3.50
2007,12,06,07,20,3.50
2007,12,06,07,21,3.50
2007,12,06,07,22,3.60
2007,12,06,07,23,3.50
2007,12,06,07,24,3.60
2007,12,06,07,25,3.60
2007,12,06,07,26,3.60
2007,12,06,07,27,3.60
2007,12,06,07,28,3.60
2007,12,06,07,29,3.60
2007,12,06,07,30,3.60
2007,12,06,07,31,3.60
2007,12,06,07,32,3.60
2007,12,06,07,33,3.60
2007,12,06,07,34,3.60
2007,12,06,07,35,3.60
2007,12,06,07,36,3.60
2007,12,06,07,37,3.60
2007,12,06,07,38,3.70
2007,12,06,07,39,3.70
2007,12,06,07,40,3.70
2007,12,06,07,41,3.70
2007,12,06,07,42,3.70
2007,12,06,07,43,3.70
2007,12,06,07,44,3.70
2007,12,06,07,45,3.70
2007,12,06,07,46,3.70
2007,12,06,07,47,3.60
2007,12,06,07,48,3.60
2007,12,06,07,49,3.60
2007,12,06,07,50,3.60
2007,12,06,07,51,3.60
2007,12,06,07,52,3.60
2007,12,06,07,53,3.70
2007,12,06,07,54,3.70
2007,12,06,07,55,3.70
2007,12,06,07,56,3.70
2007,12,06,07,57,3.70
2007,12,06,07,58,3.80
2007,12,06,07,59,3.80
2007,12,06,08,00,3.80
2007,12,06,08,01,3.80
2007,12,06,08,02,3.90
2007,12,06,08,03,3.90
2007,12,06,08,04,3.90
2007,12,06,08,05,4.00
2007,12,06,08,06,4.00
2007,12,06,08,07,4.10
2007,12,06,08,08,4.10
2007,12,06,08,09,4.10
2007,12,06,08,10,4.10
2007,12,06,08,11,4.20
2007,12,06,08,12,4.20
2007,12,06,08,13,4.20
2007,12,06,08,14,4.20
2007,12,06,08,15,4.20
2007,12,06,08,16,4.20
2007,12,06,08,17,4.20
2007,12,06,08,18,4.20
2007,12,06,08,19,4.20
2007,12,06,08,20,4.20
2007,12,06,08,21,4.20
2007,12,06,08,22,4.20
2007,12,06,08,23,4.20
2007,12,06,08,24,4.20
2007,12,06,08,25,4.20
2007,12,06,08,26,4.20
2007,12,06,08,27,4.20
2007,12,06,08,28,4.20
2007,12,06,08,29,4.30
2007,12,06,08,30,4.30
2007,12,06,08,31,4.30
2007,12,06,08,32,4.30
2007,12,06,08,33,4.30
2007,12,06,08,34,4.30
2007,12,06,08,35,4.30
2007,12,06,08,36,4.30
2007,12,06,08,37,4.30
2007,12,06,08,38,4.30
2007,12,06,08,39,4.30
2007,12,06,08,40,4.30
2007,12,06,08,41,4.30
2007,12,06,08,42,4.30
2007,12,06,08,43,4.40
2007,12,06,08,44,4.40
2007,12,06,08,45,4.40
2007,12,06,08,46,4.40
2007,12,06,08,47,4.50
2007,12,06,08,48,4.50
2007,12,06,08,49,4.50
2007,12,06,08,50,4.50
2007,12,06,08,51,4.50
2007,12,06,08,52,4.60
2007,12,06,08,53,4.60
2007,12,06,08,54,4.60
2007,12,06,08,55,4.60
2007,12,06,08,56,4.60
2007,12,06,08,57,4.60
2007,12,06,08,58,4.60
2007,12,06,08,59,4.70
2007,12,06,09,00,4.70
2007,12,06,09,01,4.70
2007,12,06,09,02,4.70
2007,12,06,09,03,4.80
2007,12,06,09,04,4.80
2007,12,06,09,05,4.80
2007,12,06,09,06,4.80
2007,12,06,09,07,4.90
2007,12,06,09,08,4.90
2007,12,06,09,09,5.00
2007,12,06,09,10,5.00
2007,12,06,09,11,5.10
2007,12,06,09,12,5.10
2007,12,06,09,13,5.10
2007,12,06,09,14,5.10
2007,12,06,09,15,5.20
2007,12,06,09,16,5.20
2007,12,06,09,17,5.30
2007,12,06,09,18,5.30
2007,12,06,09,19,5.30
2007,12,06,09,20,5.30
2007,12,06,09,21,5.30
2007,12,06,09,22,5.40
2007,12,06,09,23,5.40
2007,12,06,09,24,5.40
2007,12,06,09,25,5.40
2007,12,06,09,26,5.50
2007,12,06,09,27,5.50
2007,12,06,09,28,5.60
2007,12,06,09,29,5.60
2007,12,06,09,30,5.60
2007,12,06,09,31,5.60
2007,12,06,09,32,5.70
2007,12,06,09,33,5.70
2007,12,06,09,34,5.70
2007,12,06,09,35,5.70
2007,12,06,09,36,5.70
2007,12,06,09,37,5.70
2007,12,06,09,38,5.70
2007,12,06,09,39,5.70
2007,12,06,09,40,5.70
2007,12,06,09,41,5.70
2007,12,06,09,42,5.70
2007,12,06,09,43,5.70
2007,12,06,09,44,5.70
2007,12,06,09,45,5.70
2007,12,06,09,46,5.70
2007,12,06,09,47,5.70
2007,12,06,09,48,5.70
2007,12,06,09,49,5.70
2007,12,06,09,50,5.80
2007,12,06,09,51,5.80
2007,12,06,09,52,5.80
2007,12,06,09,53,5.80
2007,12,06,09,54,5.80
2007,12,06,09,55,5.80
2007,12,06,09,56,5.80
2007,12,06,09,57,5.80
2007,12,06,09,58,5.80
2007,12,06,09,59,5.80
2007,12,06,10,00,5.80
2007,12,06,10,01,5.90
2007,12,06,10,02,5.90
2007,12,06,10,03,5.90
2007,12,06,10,04,5.90
2007,12,06,10,05,5.90
2007,12,06,10,06,5.90
2007,12,06,10,07,5.90
2007,12,06,10,08,5.90
2007,12,06,10,09,5.90
2007,12,06,10,10,5.90
2007,12,06,10,11,6.00
2007,12,06,10,12,6.00
2007,12,06,10,13,6.00
2007,12,06,10,14,6.00
2007,12,06,10,15,6.10
2007,12,06,10,16,6.10
2007,12,06,10,17,6.10
2007,12,06,10,18,6.10
2007,12,06,10,19,6.10
2007,12,06,10,20,6.10
2007,12,06,10,21,6.10
2007,12,06,10,22,6.10
2007,12,06,10,23,6.10
2007,12,06,10,24,6.10
2007,12,06,10,25,6.10
2007,12,06,10,26,6.10
2007,12,06,10,27,6.10
2007,12,06,10,28,6.10
2007,12,06,10,29,6.10
2007,12,06,10,30,6.10
2007,12,06,10,31,6.20
2007,12,06,10,32,6.20
2007,12,06,10,33,6.20
2007,12,06,10,34,6.20
2007,12,06,10,35,6.20
2007,12,06,10,36,6.20
2007,12,06,10,37,6.20
2007,12,06,10,38,6.20
2007,12,06,10,39,6.20
2007,12,06,10,40,6.20
2007,12,06,10,41,6.20
2007,12,06,10,42,6.20
2007,12,06,10,43,6.20
2007,12,06,10,44,6.20
2007,12,06,10,45,6.20
2007,12,06,10,46,6.20
2007,12,06,10,47,6.20
2007,12,06,10,48,6.20
2007,12,06,10,49,6.20
2007,12,06,10,50,6.20
2007,12,06,10,51,6.20
2007,12,06,10,52,6.20
2007,12,06,10,53,6.20
2007,12,06,10,54,6.10
2007,12,06,10,55,6.10
2007,12,06,10,56,6.10
2007,12,06,10,57,6.10
2007,12,06,10,58,6.10
2007,12,06,10,59,6.10
2007,12,06,11,00,6.10
2007,12,06,11,01,6.10
2007,12,06,11,02,6.10
2007,12,06,11,03,6.20
2007,12,06,11,04,6.20
2007,12,06,11,05,6.20
2007,12,06,11,06,6.20
2007,12,06,11,07,6.20
2007,12,06,11,08,6.30
2007,12,06,11,09,6.30
2007,12,06,11,10,6.30
2007,12,06,11,11,6.30
2007,12,06,11,12,6.30
2007,12,06,11,13,6.30
2007,12,06,11,14,6.30
2007,12,06,11,15,6.30
2007,12,06,11,16,6.30
2007,12,06,11,17,6.30
2007,12,06,11,18,6.30
2007,12,06,11,19,6.30
2007,12,06,11,20,6.30
2007,12,06,11,21,6.40
2007,12,06,11,22,6.30
2007,12,06,11,23,6.30
2007,12,06,11,24,6.40
2007,12,06,11,25,6.40
2007,12,06,11,26,6.40
2007,12,06,11,27,6.40
2007,12,06,11,28,6.40
2007,12,06,11,29,6.50
2007,12,06,11,30,6.50
2007,12,06,11,31,6.60
2007,12,06,11,32,6.70
2007,12,06,11,33,6.70
2007,12,06,11,34,6.70
2007,12,06,11,35,6.80
2007,12,06,11,36,6.80
2007,12,06,11,37,6.80
2007,12,06,11,38,6.80
2007,12,06,11,39,6.90
2007,12,06,11,40,6.90
2007,12,06,11,41,6.90
2007,12,06,11,42,6.90
2007,12,06,11,43,7.00
2007,12,06,11,44,7.00
2007,12,06,11,45,7.00
2007,12,06,11,46,6.90
2007,12,06,11,47,6.90
2007,12,06,11,48,6.90
2007,12,06,11,49,7.00
2007,12,06,11,50,7.00
2007,12,06,11,51,7.00
2007,12,06,11,52,7.00
2007,12,06,11,53,7.00
2007,12,06,11,54,7.00
2007,12,06,11,55,6.90
2007,12,06,11,56,6.90
2007,12,06,11,57,6.80
2007,12,06,11,58,6.80
2007,12,06,11,59,6.80
2007,12,06,12,00,6.70
2007,12,06,12,01,6.70
2007,12,06,12,02,6.80
2007,12,06,12,03,6.80
2007,12,06,12,04,6.90
2007,12,06,12,05,6.90
2007,12,06,12,06,7.00
2007,12,06,12,07,7.10
2007,12,06,12,08,7.10
2007,12,06,12,09,7.10
2007,12,06,12,10,7.10
2007,12,06,12,11,7.10
2007,12,06,12,12,7.00
2007,12,06,12,13,7.00
2007,12,06,12,14,7.00
2007,12,06,12,15,7.00
2007,12,06,12,16,7.10
2007,12,06,12,17,7.10
2007,12,06,12,18,7.10
2007,12,06,12,19,7.20
2007,12,06,12,20,7.10
2007,12,06,12,21,7.10
2007,12,06,12,22,7.00
2007,12,06,12,23,6.90
2007,12,06,12,24,6.90
2007,12,06,12,25,6.80
2007,12,06,12,26,6.80
2007,12,06,12,27,6.80
2007,12,06,12,28,6.90
2007,12,06,12,29,6.90
2007,12,06,12,30,6.90
2007,12,06,12,31,6.90
2007,12,06,12,32,6.90
2007,12,06,12,33,6.90
2007,12,06,12,34,6.90
2007,12,06,12,35,7.00
2007,12,06,12,36,7.00
2007,12,06,12,37,7.10
2007,12,06,12,38,7.10
2007,12,06,12,39,7.10
2007,12,06,12,40,7.10
2007,12,06,12,41,7.20
2007,12,06,12,42,7.20
2007,12,06,12,43,7.20
2007,12,06,12,44,7.20
2007,12,06,12,45,7.10
2007,12,06,12,46,7.10
2007,12,06,12,47,7.10
2007,12,06,12,48,7.10
2007,12,06,12,49,7.10
2007,12,06,12,50,7.10
2007,12,06,12,51,7.10
2007,12,06,12,52,7.10
2007,12,06,12,53,7.20
2007,12,06,12,54,7.20
2007,12,06,12,55,7.20
2007,12,06,12,56,7.20
2007,12,06,12,57,7.20
2007,12,06,12,58,7.20
2007,12,06,12,59,7.20
2007,12,06,13,00,7.20
2007,12,06,13,01,7.20
2007,12,06,13,02,7.20
2007,12,06,13,03,7.20
2007,12,06,13,04,7.20
2007,12,06,13,05,7.20
2007,12,06,13,06,7.20
2007,12,06,13,07,7.30
2007,12,06,13,08,7.30
2007,12,06,13,09,7.30
2007,12,06,13,10,7.30
2007,12,06,13,11,7.30
2007,12,06,13,12,7.30
2007,12,06,13,13,7.30
2007,12,06,13,14,7.30
2007,12,06,13,15,7.20
2007,12,06,13,16,7.20
2007,12,06,13,17,7.20
2007,12,06,13,18,7.30
2007,12,06,13,19,7.30
2007,12,06,13,20,7.30
2007,12,06,13,21,7.30
2007,12,06,13,22,7.40
2007,12,06,13,23,7.40
2007,12,06,13,24,7.40
2007,12,06,13,25,7.40
2007,12,06,13,26,7.40
2007,12,06,13,27,7.40
2007,12,06,13,28,7.40
2007,12,06,13,29,7.40
2007,12,06,13,30,7.40
2007,12,06,13,31,7.40
2007,12,06,13,32,7.40
2007,12,06,13,33,7.50
2007,12,06,13,34,7.50
2007,12,06,13,35,7.50
2007,12,06,13,36,7.50
2007,12,06,13,37,7.50
2007,12,06,13,38,7.50
2007,12,06,13,39,7.60
2007,12,06,13,40,7.60
2007,12,06,13,41,7.60
2007,12,06,13,42,7.60
2007,12,06,13,43,7.60
2007,12,06,13,44,7.60
2007,12,06,13,45,7.60
2007,12,06,13,46,7.70
2007,12,06,13,47,7.70
2007,12,06,13,48,7.70
2007,12,06,13,49,7.70
2007,12,06,13,50,7.70
2007,12,06,13,51,7.70
2007,12,06,13,52,7.80
2007,12,06,13,53,7.80
2007,12,06,13,54,7.80
2007,12,06,13,55,7.80
2007,12,06,13,56,7.80
2007,12,06,13,57,7.80
2007,12,06,13,58,7.80
2007,12,06,13,59,7.80
2007,12,06,14,00,7.80
2007,12,06,14,01,7.80
2007,12,06,14,02,7.70
2007,12,06,14,03,7.70
2007,12,06,14,04,7.70
2007,12,06,14,05,7.80
2007,12,06,14,06,7.80
2007,12,06,14,07,7.80
2007,12,06,14,08,7.80
2007,12,06,14,09,7.80
2007,12,06,14,10,7.80
2007,12,06,14,11,7.70
2007,12,06,14,12,7.70
2007,12,06,14,13,7.80
2007,12,06,14,14,7.80
2007,12,06,14,15,7.80
2007,12,06,14,16,7.80
2007,12,06,14,17,7.80
2007,12,06,14,18,7.90
2007,12,06,14,19,7.80
2007,12,06,14,20,7.80
2007,12,06,14,21,7.80
2007,12,06,14,22,7.80
2007,12,06,14,23,7.80
2007,12,06,14,24,7.80
2007,12,06,14,25,7.70
2007,12,06,14,26,7.70
2007,12,06,14,27,7.70
2007,12,06,14,28,7.70
2007,12,06,14,29,7.70
2007,12,06,14,30,7.70
2007,12,06,14,31,7.70
2007,12,06,14,32,7.70
2007,12,06,14,33,7.70
2007,12,06,14,34,7.70
2007,12,06,14,35,7.70
2007,12,06,14,36,7.70
2007,12,06,14,37,7.70
2007,12,06,14,38,7.60
2007,12,06,14,39,7.60
2007,12,06,14,40,7.60
2007,12,06,14,41,7.60
2007,12,06,14,42,7.60
2007,12,06,14,43,7.60
2007,12,06,14,44,7.60
2007,12,06,14,45,7.60
2007,12,06,14,46,7.50
2007,12,06,14,47,7.50
2007,12,06,14,48,7.40
2007,12,06,14,49,7.30
2007,12,06,14,50,7.30
2007,12,06,14,51,7.20
2007,12,06,14,52,7.20
2007,12,06,14,53,7.20
2007,12,06,14,54,7.20
2007,12,06,14,55,7.20
2007,12,06,14,56,7.20
2007,12,06,14,57,7.20
2007,12,06,14,58,7.20
2007,12,06,14,59,7.20
2007,12,06,15,00,7.20
2007,12,06,15,01,7.20
2007,12,06,15,02,7.20
2007,12,06,15,03,7.20
2007,12,06,15,04,7.20
2007,12,06,15,05,7.20
2007,12,06,15,06,7.20
2007,12,06,15,07,7.20
2007,12,06,15,08,7.20
2007,12,06,15,09,7.20
2007,12,06,15,10,7.20
2007,12,06,15,11,7.20
2007,12,06,15,12,7.20
2007,12,06,15,13,7.20
2007,12,06,15,14,7.20
2007,12,06,15,15,7.20
2007,12,06,15,16,7.10
2007,12,06,15,17,7.10
2007,12,06,15,18,7.10
2007,12,06,15,19,7.10
2007,12,06,15,20,7.10
2007,12,06,15,21,7.10
2007,12,06,15,22,7.10
2007,12,06,15,23,7.10
2007,12,06,15,24,7.10
2007,12,06,15,25,7.10
2007,12,06,15,26,7.10
2007,12,06,15,27,7.10
2007,12,06,15,28,7.10
2007,12,06,15,29,7.10
2007,12,06,15,30,7.10
2007,12,06,15,31,7.10
2007,12,06,15,32,7.00
2007,12,06,15,33,7.00
2007,12,06,15,34,7.00
2007,12,06,15,35,7.00
2007,12,06,15,36,7.00
2007,12,06,15,37,7.00
2007,12,06,15,38,6.90
2007,12,06,15,39,6.90
2007,12,06,15,40,6.90
2007,12,06,15,41,6.90
2007,12,06,15,42,6.90
2007,12,06,15,43,6.90
2007,12,06,15,44,6.90
2007,12,06,15,45,6.90
2007,12,06,15,46,6.80
2007,12,06,15,47,6.80
2007,12,06,15,48,6.80
2007,12,06,15,49,6.80
2007,12,06,15,50,6.80
2007,12,06,15,51,6.80
2007,12,06,15,52,6.80
2007,12,06,15,53,6.70
2007,12,06,15,54,6.70
2007,12,06,15,55,6.70
2007,12,06,15,56,6.70
2007,12,06,15,57,6.70
2007,12,06,15,58,6.60
2007,12,06,15,59,6.60
2007,12,06,16,00,6.60
2007,12,06,16,01,6.50
2007,12,06,16,02,6.50
2007,12,06,16,03,6.40
2007,12,06,16,04,6.40
2007,12,06,16,05,6.40
2007,12,06,16,06,6.40
2007,12,06,16,07,6.30
2007,12,06,16,08,6.30
2007,12,06,16,09,6.30
2007,12,06,16,10,6.30
2007,12,06,16,11,6.20
2007,12,06,16,12,6.20
2007,12,06,16,13,6.20
2007,12,06,16,14,6.10
2007,12,06,16,15,6.10
2007,12,06,16,16,6.10
2007,12,06,16,17,6.00
2007,12,06,16,18,6.00
2007,12,06,16,19,5.90
2007,12,06,16,20,5.90
2007,12,06,16,21,5.80
2007,12,06,16,22,5.80
2007,12,06,16,23,5.80
2007,12,06,16,24,5.80
2007,12,06,16,25,5.70
2007,12,06,16,26,5.70
2007,12,06,16,27,5.70
2007,12,06,16,28,5.60
2007,12,06,16,29,5.60
2007,12,06,16,30,5.50
2007,12,06,16,31,5.50
2007,12,06,16,32,5.50
2007,12,06,16,33,5.50
2007,12,06,16,34,5.40
2007,12,06,16,35,5.40
2007,12,06,16,36,5.40
2007,12,06,16,37,5.30
2007,12,06,16,38,5.30
2007,12,06,16,39,5.20
2007,12,06,16,40,5.10
2007,12,06,16,41,5.10
2007,12,06,16,42,5.10
2007,12,06,16,43,5.00
2007,12,06,16,44,4.90
2007,12,06,16,45,4.90
2007,12,06,16,46,4.80
2007,12,06,16,47,4.80
2007,12,06,16,48,4.70
2007,12,06,16,49,4.60
2007,12,06,16,50,4.60
2007,12,06,16,51,4.50
2007,12,06,16,52,4.40
2007,12,06,16,53,4.40
2007,12,06,16,54,4.30
2007,12,06,16,55,4.30
2007,12,06,16,56,4.20
2007,12,06,16,57,4.20
2007,12,06,16,58,4.10
2007,12,06,16,59,4.10
2007,12,06,17,00,4.10
2007,12,06,17,01,4.00
2007,12,06,17,02,4.00
2007,12,06,17,03,3.90
2007,12,06,17,04,3.90
2007,12,06,17,05,3.90
2007,12,06,17,06,3.90
2007,12,06,17,07,3.80
2007,12,06,17,08,3.80
2007,12,06,17,09,3.80
2007,12,06,17,10,3.80
2007,12,06,17,11,3.80
2007,12,06,17,12,3.70
2007,12,06,17,13,3.70
2007,12,06,17,14,3.70
2007,12,06,17,15,3.70
2007,12,06,17,16,3.70
2007,12,06,17,17,3.70
2007,12,06,17,18,3.80
2007,12,06,17,19,3.80
2007,12,06,17,20,3.80
2007,12,06,17,21,3.80
2007,12,06,17,22,3.80
2007,12,06,17,23,3.80
2007,12,06,17,24,3.80
2007,12,06,17,25,3.80
2007,12,06,17,26,3.80
2007,12,06,17,27,3.80
2007,12,06,17,28,3.80
2007,12,06,17,29,3.70
2007,12,06,17,30,3.70
2007,12,06,17,31,3.70
2007,12,06,17,32,3.70
2007,12,06,17,33,3.70
2007,12,06,17,34,3.70
2007,12,06,17,35,3.60
2007,12,06,17,36,3.60
2007,12,06,17,37,3.60
2007,12,06,17,38,3.60
2007,12,06,17,39,3.60
2007,12,06,17,40,3.50
2007,12,06,17,41,3.50
2007,12,06,17,42,3.40
2007,12,06,17,43,3.40
2007,12,06,17,44,3.40
2007,12,06,17,45,3.30
2007,12,06,17,46,3.30
2007,12,06,17,47,3.30
2007,12,06,17,48,3.30
2007,12,06,17,49,3.20
2007,12,06,17,50,3.20
2007,12,06,17,51,3.20
2007,12,06,17,52,3.20
2007,12,06,17,53,3.20
2007,12,06,17,54,3.20
2007,12,06,17,55,3.20
2007,12,06,17,56,3.20
2007,12,06,17,57,3.30
2007,12,06,17,58,3.30
2007,12,06,17,59,3.30
2007,12,06,18,00,3.20
2007,12,06,18,01,3.30
2007,12,06,18,02,3.20
2007,12,06,18,03,3.20
2007,12,06,18,04,3.20
2007,12,06,18,05,3.20
2007,12,06,18,06,3.20